Location: Leavitt
(49.1741°N, 113.4526°W)
Time: 16:07:17
(UTC+00:00)

BlueWalker 3 - Visible Passes

Search period start: 05 June 2023 00:00
Search period end: 15 June 2023 00:00
Orbit: 494 x 513 km, 53.2° (Epoch: 05 June)

Date Brightness Start Highest point End Pass type
(mag) Time Alt. Az. Time Alt. Az. Time Alt. Az.
05 Jun 3.1 04:56:47 10° WNW 05:00:29 45° N 05:04:14 10° ENE visible
05 Jun 2.3 06:35:33 10° WNW 06:39:24 65° NNE 06:42:50 13° E visible
05 Jun 2.6 08:14:14 10° WNW 08:17:27 35° SW 08:17:27 35° SW visible
06 Jun 3.1 04:36:22 10° WNW 04:40:06 44° N 04:43:50 10° ENE visible
06 Jun 2.3 06:15:09 10° WNW 06:19:00 66° NNE 06:22:19 14° E visible
06 Jun 2.7 07:53:50 10° WNW 07:56:57 34° SW 07:56:57 34° SW visible
07 Jun 3.1 04:15:58 10° WNW 04:19:41 44° N 04:23:25 10° ENE visible
07 Jun 2.2 05:54:43 10° WNW 05:58:35 67° NNE 06:01:57 13° ESE visible
07 Jun 2.7 07:33:25 10° WNW 07:36:37 34° SW 07:36:37 34° SW visible
08 Jun 2.2 05:34:18 10° WNW 05:38:09 68° NNE 05:41:43 12° ESE visible
08 Jun 2.7 07:13:00 10° WNW 07:16:22 34° SW 07:16:22 34° SW visible
09 Jun 2.2 05:13:52 10° WNW 05:17:42 68° NNE 05:21:32 10° ESE visible
09 Jun 2.7 06:52:34 10° WNW 06:56:05 33° SW 06:56:12 33° SW visible
10 Jun 2.2 04:53:24 10° WNW 04:57:16 69° NNE 05:01:08 10° ESE visible
10 Jun 2.8 06:32:08 10° WNW 06:35:37 32° SW 06:36:05 31° SSW visible
11 Jun 2.2 04:32:57 10° WNW 04:36:49 70° NNE 04:40:40 10° ESE visible
11 Jun 2.9 06:11:40 10° WNW 06:15:09 32° SW 06:16:01 28° SSW visible
12 Jun 3.0 05:51:13 10° WNW 05:54:40 31° SW 05:56:00 24° S visible
13 Jun 3.0 05:30:45 10° WNW 05:34:10 30° SW 05:36:01 20° S visible
14 Jun 3.1 05:10:16 10° WNW 05:13:40 30° SW 05:16:04 16° SSE visible
